Miscellaneous Local Product
Issued by NWS Hastings, NE

Home | Current Version | Previous Version | Text Only | Print | Product List | Glossary Off
Versions: 1 2 3 4 5 6 7 8 9 10 11 12 13 14 15 16 17 18 19 20 21 22 23 24 25 26 27 28 29 30 31 32 33 34 35 36 37 38 39 40 41 42 43 44 45 46 47 48 49 50

000
AXUS43 KGID 030002
MISGRI

GID CWA HOURLY WEATHER ROUNDUP
NATIONAL WEATHER SERVICE HASTINGS NE
700 PM CDT WED SEP 02 2015

NOTE: "FAIR" INDICATES FEW OR NO CLOUDS BELOW 12,000 FEET WITH NO
SIGNIFICANT WEATHER AND/OR OBSTRUCTIONS TO VISIBILITY.

...SOUTH CENTRAL NEBRASKA...

CITY           SKY/WX    TMP DP  RH WIND       PRES   REMARKS
GRAND ISLAND   MOSUNNY   91  65  41 S6        29.83S HX  93
HASTINGS       MOSUNNY   91  65  41 S7        29.83S HX  93
KEARNEY        MOSUNNY   91  66  43 SE8       29.83S HX  94
ORD            SUNNY     91  63  39 S10       29.81S HX  92
YORK           MOSUNNY   86  70  58 S6        29.82F HX  90
AURORA         MOSUNNY   87  69  54 S6        29.82S HX  91
LEXINGTON      SUNNY     90  63  40 E6        29.83S HX  91
HOLDREGE       MOSUNNY   93  58  30 SE8       29.83S HX  92
HEBRON         MOSUNNY   92  58  31 S15       29.82S HX  91

...NEBRASKA PANHANDLE...

CITY           SKY/WX    TMP DP  RH WIND       PRES   REMARKS
CHADRON        SUNNY     95  45  17 S7        29.79F HX  91
ALLIANCE       SUNNY     93  41  16 S8        29.87F
SCOTTSBLUFF    SUNNY     92  44  19 SE7       29.88S
SIDNEY         SUNNY     91  42  18 SE7       29.93S

...WESTERN AND NORTH CENTRAL NEBRASKA...

CITY           SKY/WX    TMP DP  RH WIND       PRES   REMARKS
VALENTINE      MOSUNNY   96  46  18 S7        29.78F HX  92
AINSWORTH      MOSUNNY   88  58  36 S6        29.80S
ONEILL         SUNNY     91  68  47 S14       29.81S HX  94
BROKEN BOW     SUNNY     91  62  37 S9        29.84S HX  91
IMPERIAL       MOSUNNY   96  51  21 SE7       29.85S HX  93
NORTH PLATTE   SUNNY     89  57  33 SE8       29.83S
MCCOOK         SUNNY     96  54  24 E8        29.81F HX  94

...EASTERN NEBRASKA...

CITY           SKY/WX    TMP DP  RH WIND       PRES   REMARKS
NORFOLK        SUNNY     87  71  58 S7        29.82S HX  93
SO SIOUX CITY  CLEAR     84  67  56 S7        29.81S
TEKAMAH        CLEAR     86  76  71 SE5       29.82S HX  96
COLUMBUS       MOSUNNY   88  70  55 SE5       29.82S HX  92
ALBION         SUNNY     86  70  57 SE8       29.83S HX  91
OMAHA EPPLEY   MOCLDY    88  71  57 S15       29.83S HX  94
OFFUTT AFB     CLEAR     85  72  65 SE8       29.83S HX  91
MILLARD        PTCLDY    87  74  64 SE10      29.83S HX  95
LINCOLN        MOSUNNY   88  68  51 S9        29.83R HX  91
NEBRASKA CITY  CLEAR     86  65  50 S7        29.86S
BEATRICE       MOSUNNY   88  67  49 S15G22    29.83F HX  91
FALLS CITY     CLEAR     86  69  56 S9        29.86S HX  90

...NORTHERN KANSAS...

CITY           SKY/WX    TMP DP  RH WIND       PRES   REMARKS
GOODLAND       SUNNY     93  48  21 S5        29.87S
HILL CITY      SUNNY     99  56  23 S10       29.79S HX  97
NORTON         CLEAR     93  48  21 S7        29.79F HX  90
PHILLIPSBURG   SUNNY    100  55  22 CALM      29.77F HX  99
SMITH CENTER   SUNNY     95  57  28 SE13      29.79F HX  94
HAYS           SUNNY     99  55  23 S24G31    29.79S HX  97
RUSSELL        SUNNY     96  58  27 S16G31    29.80S HX  95
CONCORDIA      SUNNY     90  63  40 S14G22    29.82F HX  91
SALINA         SUNNY     93  63  36 S17       29.84R HX  94
TOPEKA         CLEAR     86  68  54 S10       29.89S



USA.gov is the U.S. government's official web portal to all federal, state and local government web resources and services.